Location: Carbay
(47.7326°N, 1.2189°W)
Time: 11:32:19
(UTC+00:00)

Daily predictions for brighter satellites

Satellite Brightness Start Highest point End
(mag) Time Altitude Azimuth Time Altitude Azimuth Time Altitude Azimuth
SL-08 R/B 3.3 16:40:57 10° NNE 16:45:41 67° ESE 16:50:17 10° S
deb Kosmos-1763 4.2 16:44:59 10° SSW 16:48:23 69° WNW 16:51:48 10° NNE
Cosmos 1766 Rocket 4.4 16:45:03 10° NNW 16:49:19 55° W 16:53:36 10° S
Cosmos 2084 3.5 16:45:37 10° NW 16:49:51 60° NE 16:54:16 10° SE
Cosmos 1656 3.7 16:45:05 10° NNW 16:50:40 82° ENE 16:56:17 10° SSE
NOSS 2-1 (E) 4.3 16:50:58 10° WSW 16:53:54 31° NW 16:57:02 10° NNE
FengYun 1-2 T 4.3 16:49:03 10° SSE 16:54:31 60° ENE 16:59:59 10° N
H-2A R/B 2.9 16:51:19 10° ESE 16:55:37 28° ENE 16:59:52 10° N
Cosmos 2034 Rocket 4.1 16:49:50 10° S 16:55:50 58° E 17:01:52 10° NNE
MOS 1 Rocket 4.4 16:51:33 10° N 16:56:26 49° WNW 17:01:01 10° SW
ERBS 3.3 16:53:34 10° W 16:56:31 33° NNW 16:59:30 10° NE
Cosmos 2322 Rocket 4.0 16:55:38 10° N 16:57:28 11° NNE 16:59:17 10° NE
USA 306 3.7 16:55:47 10° W 16:59:47 38° N 17:03:44 10° ENE
Cosmos 1271 Rocket 4.1 16:57:15 10° SW 17:01:01 42° WNW 17:04:49 10° N
Meteor 2-19 Rocket 4.5 16:55:15 10° N 17:01:23 85° E 17:07:30 10° S
Cosmos 1697 Rocket 2.8 16:56:26 10° NNW 17:01:57 54° ENE 17:07:26 10° SE
Cosmos 2369 4.1 16:59:47 10° NNW 17:05:13 41° NE 17:10:36 10° ESE
USA 267 3.3 16:58:40 10° NE 17:05:14 82° SE 17:11:48 10° SW
Cosmos 1980 Rocket 2.8 17:00:29 10° NNW 17:05:38 34° NE 17:10:44 10° ESE
Cosmos 1763 Rocket 3.6 17:02:29 10° S 17:07:24 54° ESE 17:12:23 10° NNE
COSMO-SKYMED 1 4.2 17:05:13 10° NE 17:07:54 16° E 17:10:33 10° SE
Cosmos 1939 Rocket 2.9 17:05:04 10° SSE 17:09:08 64° ENE 17:13:11 10° N
SL-24 R/B - RUBIN 2 4.2 17:06:07 10° NNW 17:10:23 35° NE 17:14:24 10° ESE
Meteor 1-25 Rocket 4.2 17:05:41 10° N 17:11:12 59° ENE 17:16:43 10° SSE
Cosmos 841 Rocket 4.4 17:08:43 10° SSE 17:13:03 28° E 17:17:15 11° NE
SL-16 R/B 3.7 17:11:33 10° N 17:15:04 16° NE 17:17:26 13° ENE
Cosmos 1937 Rocket 3.7 17:09:53 10° NNW 17:15:06 52° ENE 17:20:17 10° SE
Cosmos 1812 4.3 17:12:48 10° SE 17:15:14 16° E 17:16:31 14° ENE
Cosmos 1634 Rocket 4.4 17:11:44 10° SSE 17:17:36 42° E 17:23:29 10° NNE
USA 307 3.8 17:14:09 10° WNW 17:18:09 37° N 17:21:20 15° NE
Cosmos 1633 Rocket 4.3 17:15:01 10° NNE 17:18:15 20° ENE 17:21:30 10° ESE
USA 229 DEB 4.0 17:12:13 10° NW 17:19:33 87° NE 17:27:23 10° SE
USA 229 4.0 17:12:19 10° NW 17:19:39 87° NE 17:27:28 10° SE
Cosmos 2082 Rocket 3.1 17:15:43 10° SSE 17:20:29 28° ESE 17:24:27 13° NE
YAOGAN 1 4.4 17:22:20 12° NE 17:22:20 12° NE 17:23:22 10° NNE
NOAA 6 4.0 17:17:20 10° SSE 17:22:29 81° ENE 17:27:37 10° NNW
Cosmos 990 Rocket 4.2 17:18:31 10° NNW 17:23:44 77° WSW 17:28:52 10° SSE
Cosmos 2026 Rocket 4.0 17:17:57 10° N 17:23:59 56° ENE 17:29:56 10° SSE
CZ-4B DEB 4.2 17:21:36 10° SSE 17:27:05 70° ENE 17:32:34 10° N
CORIOLIS 4.1 17:21:47 10° SSE 17:27:11 80° ENE 17:32:38 10° NNW
Cosmos 2195 Rocket 4.4 17:21:06 10° N 17:27:16 69° E 17:33:26 10° SSE
ATLAS 2AS CENTAUR R/B 4.3 17:21:18 10° WNW 17:27:34 26° NNW 17:33:28 10° NE
USA 276 3.6 17:25:34 10° W 17:28:27 35° SSW 17:31:21 10° SE
Cosmos 372 Rocket 4.3 17:24:22 10° NNW 17:29:24 45° ENE 17:34:25 10° SE
Cosmos 2278 4.2 17:24:21 10° NNW 17:29:39 37° NE 17:34:54 10° ESE
Cosmos 1602 3.6 17:26:01 10° N 17:29:52 63° E 17:33:41 10° SSE
Okean O Rocket 2.4 17:26:35 10° SE 17:30:25 29° ENE 17:34:16 10° N
Cosmos 1743 Rocket 3.7 17:27:39 10° NNW 17:32:00 78° W 17:36:18 10° S
ATLAS CENTAUR R/B 3.7 17:29:33 10° WNW 17:32:27 17° NNW 17:35:29 10° NNE
Cosmos 1782 3.1 17:32:08 10° SSE 17:35:58 46° E 17:39:44 10° NNE
Cosmos 1151 Rocket 3.9 17:32:23 10° SSE 17:36:02 27° E 17:38:08 19° NE
Meteor 2-14 Rocket 4.4 17:30:09 10° N 17:36:14 64° ENE 17:42:15 10° SSE
COSMOS 2406 3.3 17:32:17 10° S 17:37:56 62° ESE 17:43:04 13° NE
USA 234 3.5 17:32:56 10° SE 17:39:27 72° SW 17:46:00 10° NW
COSMOS 2455 3.2 17:33:59 10° S 17:39:41 46° ESE 17:43:55 18° NE
USA 308 3.8 17:36:47 10° WNW 17:40:43 35° N 17:42:51 22° NE
NOSS 3-1 (A) 4.5 17:35:37 10° NW 17:43:05 70° SW 17:51:48 10° SSE
Cosmos 1666 Rocket 4.0 17:39:10 10° N 17:43:23 40° ENE 17:47:32 10° SE
ARGOS 3.4 17:38:59 10° SE 17:44:05 44° ENE 17:49:11 10° N
Cosmos 1833 Rocket 2.6 17:38:50 10° SSW 17:44:27 87° ESE 17:49:48 12° NNE
Cosmos 1340 Rocket 4.3 17:42:17 10° NNW 17:46:06 40° W 17:49:55 10° SSW
Cosmos 858 Rocket 4.5 17:41:43 10° NNW 17:47:03 85° ENE 17:52:20 10° SSE
ISS -3.8 17:45:27 10° WNW 17:48:51 69° NNE 17:50:10 34° E
NOSS 2-2 (D) 4.2 17:44:33 10° NW 17:49:37 74° NE 17:56:45 10° SE
NOSS 2-2 (E) 4.4 17:44:57 10° NW 17:50:12 86° NE 17:57:38 10° SE
Cosmos 1328 Rocket 4.4 17:46:35 10° SSE 17:50:22 28° E 17:50:52 27° ENE
CZ-2D R/B 3.1 17:47:48 10° SSE 17:51:38 88° E 17:55:29 10° NNW
Cosmos 1809 Rocket 4.5 17:45:45 10° N 17:51:52 86° W 17:57:57 10° S
PAYLOAD B 4.2 17:48:29 10° SSE 17:54:06 89° ENE 17:59:45 10° NNW
Lacrosse 5 rocket 2.1 17:52:18 10° NW 17:55:49 31° NNE 17:56:30 29° NE
SKYMED 2 3.8 17:53:45 21° NE 17:56:21 45° E 18:00:30 10° S
Meteor 2-21 Rocket 4.3 17:51:53 10° N 17:58:00 69° ENE 18:04:02 10° SSE
Cosmos 1570 Rocket 4.5 17:55:34 10° S 18:00:22 38° ESE 18:02:05 30° ENE
EP 1 4.4 17:57:06 10° SSW 18:00:25 65° SE 18:00:41 60° E
Landsat 5 4.0 18:00:26 34° E 18:00:39 35° E 18:04:21 10° SSE
CZ-4B R/B 3.0 17:55:36 10° SSE 18:01:00 73° ENE 18:06:21 10° NNW
ATLAS CENTAUR R/B 2.7 17:51:35 10° SW 18:01:10 85° NW 18:03:24 30° NE
SL-08 RB Rocket 4.0 17:59:29 10° SE 18:03:51 42° ENE 18:08:13 10° N
Cosmos 1500 3.2 18:00:26 10° NNW 18:04:12 79° W 18:07:54 10° S
Cosmos 540 Rocket 3.4 17:59:06 10° SSW 18:04:13 86° WNW 18:08:24 16° NNE
CZ-2C R/B 2.6 17:59:22 11° NNE 18:04:22 57° E 18:09:26 10° S
GEOS 3 Rocket 3.9 18:02:08 27° E 18:04:41 47° NE 18:09:40 10° NNW
Cosmos 1818 3.9 18:02:01 10° NNW 18:07:17 44° NE 18:09:03 33° E
Meteor 1-11 Rocket 4.3 18:02:40 10° N 18:07:39 32° ENE 18:07:51 32° ENE
Cosmos 1814 Rocket 4.1 18:03:00 10° S 18:08:03 50° ESE 18:10:08 31° NE
USA 305 3.7 18:04:11 10° WNW 18:08:06 35° N 18:08:56 32° NNE
Cosmos 44 Rocket 3.7 18:06:23 10° NNW 18:11:06 41° NE 18:11:46 39° ENE
CZ-4C R/B 2.9 18:04:19 10° NW 18:11:25 72° NE 18:19:47 10° SE
Meteor 1-26 Rocket 4.4 18:05:38 10° SSW 18:11:36 84° W 18:17:42 10° N
Cosmos 1933 4.4 18:08:50 10° SSW 18:12:43 44° WNW 18:16:37 10° N
Sich 1 3.6 18:08:42 10° NNW 18:12:56 58° W 18:17:09 10° S
Feng Yun 1-1 Rocket 4.4 18:14:05 10° SSE 18:19:52 59° ENE 18:25:38 10° N
Cosmos 2360 Rocket 3.7 18:19:15 10° N 18:22:13 20° NNE 18:22:13 20° NNE
deb Chang Zheng 4 3.9 18:23:51 10° S 18:28:08 67° WSW 18:32:26 10° NNW
Cosmos 2208 Rocket 4.1 18:27:45 10° S 18:33:01 58° ESE 18:33:46 53° ENE
Cosmos 1666 2.9 18:30:08 10° NNW 18:33:50 65° W 18:37:30 10° S
H-2A R/B 3.1 18:29:54 10° S 18:34:52 45° W 18:39:44 10° NNW
Cosmos 2150 Rocket 4.2 18:32:40 10° NNW 18:37:02 49° NE 18:37:02 49° NE
USA 306 3.9 18:36:20 10° WNW 18:39:44 36° N 18:39:44 36° N
Cosmos 2322 Rocket 3.0 18:37:50 10° NNW 18:41:55 35° NNE 18:41:55 35° NNE
COSMO-SKYMED 1 3.1 18:42:21 28° N 18:44:26 59° WNW 18:48:42 10° SSW
Cosmos 2279 Rocket 4.2 18:40:51 10° SSW 18:47:03 70° W 18:53:16 10° N
USA 267 3.8 18:45:34 34° NNE 18:48:02 49° NNW 18:54:16 10° W
Cosmos 1980 Rocket 3.1 18:44:24 10° NW 18:49:49 47° WSW 18:55:09 10° S
Cosmos 1812 3.9 18:46:59 10° SSW 18:50:38 41° WNW 18:51:36 34° NW
Cosmos 2266 Rocket 3.9 18:44:26 10° N 18:50:51 78° E 18:57:16 10° SSE
Spot 2 4.4 18:51:13 27° SSE 18:54:09 89° WSW 18:59:19 10° NNW
Cosmos 841 Rocket 4.4 18:49:47 10° SW 18:54:43 44° WNW 18:57:22 25° N
Cosmos 1633 Rocket 4.1 18:52:06 10° NNW 18:56:17 45° W 19:00:28 10° SSW
YAOGAN 1 4.4 18:59:28 23° NNW 18:59:28 23° NNW 19:01:07 10° NNW
USA 307 4.3 18:54:39 10° WNW 18:57:22 31° NNW 18:57:22 31° NNW
Cosmos 1125 Rocket 3.9 18:53:32 10° NNW 18:57:27 49° N 18:57:27 49° N
SL-16 R/B 2.4 18:54:39 10° NNW 18:59:20 56° N 18:59:20 56° N
Meteor 2-15 Rocket 4.3 18:56:41 10° S 19:02:47 78° E 19:03:20 72° NE
Cosmos 2082 Rocket 2.8 18:58:44 10° SW 19:04:16 52° WNW 19:06:20 35° N
Okean O Rocket 3.3 19:02:38 10° SSW 19:06:40 34° W 19:10:45 10° NNW
Cosmos 2333 Rocket 4.2 19:04:35 10° N 19:06:12 17° N 19:06:12 17° N
ATLAS 2AS CENTAUR R/B 4.1 19:15:03 10° NW 19:20:53 25° N 19:20:53 25° N
Cosmos 1655 Rocket 4.4 19:15:59 10° NNW 19:22:17 61° W 19:28:32 10° S
ISS -0.5 19:22:33 10° W 19:23:11 14° W 19:23:11 14° W
COSMOS 2455 3.9 19:20:04 10° WSW 19:25:43 41° NW 19:27:05 36° NNW
Lacrosse 5 rocket 4.0 19:31:11 10° WNW 19:32:07 17° WNW 19:32:07 17° WNW
Cosmos 2219 Rocket 4.5 19:33:21 10° NNW 19:34:05 13° N 19:34:05 13° N
CZ-4C R/B 4.3 19:53:14 10° NW 19:59:51 35° WSW 20:05:34 16° S
Cosmos 2360 Rocket 4.4 20:02:38 10° NNW 20:04:00 18° NNW 20:04:00 18° NNW
Cosmos 2322 Rocket 4.5 20:22:00 10° NW 20:23:46 19° NW 20:23:46 19° NW
